CCA1564 ZSSS-ZBAA

Flight info

Callsign CCA1564
Flight time 1h 50m
Altitude 36100
Route PIKAS G330 PIMOL A593 DALIM W157 AVBOX
Aircraft B77W/H-SDE3/L

Departure

Time 2026-05-05 04:37
Airport Shanghai Hongqiao International Airport (ZSSS)

Arrival

Time 2026-05-05 06:27
Airport Beijing Capital International Airport (ZBAA)
Time Latitude Longitude Altitude Speed Heading
2026-05-05 04:13 31.19497 121.32549 24 ft 0 kts 225°
2026-05-05 04:25 31.19504 121.32558 24 ft 2 kts 225°
2026-05-05 04:25 31.19515 121.32570 24 ft 2 kts 225°
2026-05-05 04:25 31.19525 121.32582 24 ft 2 kts 225°
2026-05-05 04:25 31.19536 121.32595 24 ft 2 kts 225°
2026-05-05 04:26 31.19545 121.32606 24 ft 0 kts 225°
2026-05-05 04:26 31.19553 121.32616 24 ft 2 kts 223°
2026-05-05 04:26 31.19564 121.32626 24 ft 2 kts 213°
2026-05-05 04:26 31.19577 121.32636 24 ft 2 kts 206°
2026-05-05 04:27 31.19591 121.32642 24 ft 2 kts 200°
2026-05-05 04:27 31.19605 121.32648 24 ft 2 kts 193°
2026-05-05 04:27 31.19620 121.32651 24 ft 2 kts 186°
2026-05-05 04:27 31.19635 121.32652 24 ft 2 kts 179°
2026-05-05 04:28 31.19641 121.32652 24 ft 0 kts 176°
2026-05-05 04:30 31.19622 121.32653 24 ft 5 kts 175°
2026-05-05 04:30 31.19588 121.32674 24 ft 6 kts 125°
2026-05-05 04:30 31.19574 121.32730 24 ft 7 kts 101°
2026-05-05 04:31 31.19572 121.32811 24 ft 12 kts 88°
2026-05-05 04:31 31.19576 121.32933 24 ft 16 kts 88°
2026-05-05 04:31 31.19582 121.33030 24 ft 6 kts 63°
2026-05-05 04:31 31.19628 121.33057 24 ft 8 kts
2026-05-05 04:32 31.19700 121.33054 24 ft 12 kts 357°
2026-05-05 04:32 31.19795 121.33049 24 ft 15 kts 357°
2026-05-05 04:32 31.19912 121.33043 24 ft 18 kts 357°
2026-05-05 04:32 31.20046 121.33035 24 ft 20 kts 357°
2026-05-05 04:33 31.20190 121.33028 24 ft 20 kts 357°
2026-05-05 04:33 31.20236 121.33025 24 ft 19 kts 357°
2026-05-05 04:33 31.20481 121.33012 22 ft 23 kts 357°
2026-05-05 04:34 31.20813 121.32995 24 ft 22 kts 357°
2026-05-05 04:34 31.20966 121.32985 24 ft 21 kts 357°
2026-05-05 04:34 31.21112 121.32979 24 ft 20 kts 358°
2026-05-05 04:34 31.21232 121.32973 24 ft 8 kts 358°
2026-05-05 04:35 31.21275 121.32999 24 ft 7 kts 56°
2026-05-05 04:35 31.21280 121.33038 24 ft 4 kts 86°
2026-05-05 04:35 31.21283 121.33095 24 ft 9 kts 87°
2026-05-05 04:35 31.21266 121.33160 24 ft 8 kts 144°
2026-05-05 04:36 31.21217 121.33167 24 ft 6 kts 179°
2026-05-05 04:36 31.21169 121.33169 24 ft 7 kts 177°
2026-05-05 04:36 31.20971 121.33179 24 ft 62 kts 178°
2026-05-05 04:36 31.20287 121.33218 25 ft 132 kts 177°
2026-05-05 04:37 31.19226 121.33273 337 ft 160 kts 176°
2026-05-05 04:37 31.18127 121.33327 1166 ft 161 kts 178°
2026-05-05 04:37 31.17417 121.33339 1755 ft 157 kts 176°
2026-05-05 04:37 31.16343 121.33420 2324 ft 160 kts 175°
2026-05-05 04:38 31.15237 121.33491 2866 ft 162 kts 176°
2026-05-05 04:38 31.14085 121.33553 3312 ft 172 kts 177°
2026-05-05 04:38 31.12827 121.33619 3679 ft 190 kts 177°
2026-05-05 04:38 31.11446 121.33693 4088 ft 207 kts 176°
2026-05-05 04:39 31.09939 121.33774 4541 ft 224 kts 176°
2026-05-05 04:39 31.08328 121.33856 4941 ft 246 kts 179°
2026-05-05 04:39 31.06603 121.33498 5421 ft 263 kts 202°
2026-05-05 04:39 31.05074 121.32233 6061 ft 274 kts 229°
2026-05-05 04:40 31.04188 121.30297 6837 ft 277 kts 256°
2026-05-05 04:40 31.04122 121.28094 7644 ft 278 kts 279°
2026-05-05 04:40 31.04530 121.25925 8465 ft 280 kts 283°
2026-05-05 04:40 31.04971 121.23732 9278 ft 281 kts 282°
2026-05-05 04:41 31.05396 121.21503 10094 ft 283 kts 282°
2026-05-05 04:41 31.05960 121.19257 10608 ft 296 kts 291°
2026-05-05 04:41 31.06897 121.17062 11028 ft 313 kts 301°
2026-05-05 04:41 31.08251 121.15000 11519 ft 329 kts 312°
2026-05-05 04:42 31.10006 121.13195 11824 ft 352 kts 323°
2026-05-05 04:42 31.12202 121.11736 11827 ft 367 kts 335°
2026-05-05 04:42 31.14646 121.10883 11837 ft 371 kts 348°
2026-05-05 04:42 31.17239 121.10704 11814 ft 374 kts
2026-05-05 04:43 31.19844 121.10931 11806 ft 375 kts
2026-05-05 04:43 31.22454 121.11085 11835 ft 375 kts
2026-05-05 04:43 31.25041 121.11144 11828 ft 375 kts 359°
2026-05-05 04:43 31.27413 121.11140 11825 ft 374 kts 358°
2026-05-05 04:44 31.30202 121.11084 11822 ft 373 kts 357°
2026-05-05 04:44 31.32794 121.10999 11836 ft 374 kts 356°
2026-05-05 04:44 31.35462 121.10949 12296 ft 390 kts
2026-05-05 04:44 31.38144 121.11136 13518 ft 385 kts
2026-05-05 04:45 31.40805 121.11337 14727 ft 385 kts
2026-05-05 04:45 31.43492 121.11365 15679 ft 391 kts 353°
2026-05-05 04:45 31.46188 121.10832 16625 ft 396 kts 342°
2026-05-05 04:45 31.48755 121.09747 17604 ft 399 kts 334°
2026-05-05 04:46 31.51303 121.08391 18621 ft 404 kts 333°
2026-05-05 04:46 31.53882 121.07002 19453 ft 412 kts 333°
2026-05-05 04:46 31.56493 121.05600 19708 ft 416 kts 333°
2026-05-05 04:46 31.59168 121.04166 20301 ft 429 kts 333°
2026-05-05 04:47 31.61851 121.02734 21627 ft 425 kts 333°
2026-05-05 04:47 31.64543 121.01296 22825 ft 424 kts 333°
2026-05-05 04:47 31.67216 120.99867 23610 ft 432 kts 333°
2026-05-05 04:47 31.69971 120.98395 24282 ft 441 kts 333°
2026-05-05 04:48 31.72768 120.96900 25036 ft 447 kts 333°
2026-05-05 04:48 31.75632 120.95370 25791 ft 452 kts 333°
2026-05-05 04:48 31.78474 120.93851 26539 ft 457 kts 332°
2026-05-05 04:48 31.81399 120.92286 27334 ft 462 kts 332°
2026-05-05 04:49 31.84319 120.90723 28071 ft 466 kts 332°
2026-05-05 04:49 31.87265 120.89145 28788 ft 471 kts 332°
2026-05-05 04:49 31.90257 120.87541 29554 ft 474 kts 332°
2026-05-05 04:49 31.93290 120.85916 30434 ft 472 kts 332°
2026-05-05 04:50 31.96245 120.84332 31336 ft 468 kts 331°
2026-05-05 04:50 31.99196 120.82747 32187 ft 464 kts 331°
2026-05-05 04:50 32.02129 120.81171 32896 ft 462 kts 330°
2026-05-05 04:50 32.05042 120.79602 33522 ft 461 kts 330°
2026-05-05 04:51 32.07843 120.77911 34026 ft 456 kts 323°
2026-05-05 04:51 32.10410 120.75758 34471 ft 451 kts 315°
2026-05-05 04:51 32.12678 120.73180 34880 ft 447 kts 307°
2026-05-05 04:51 32.14531 120.70331 35402 ft 441 kts 299°
2026-05-05 04:52 32.16007 120.67229 35960 ft 435 kts 291°
2026-05-05 04:52 32.17121 120.63899 36087 ft 435 kts 284°
2026-05-05 04:52 32.17818 120.60450 36088 ft 430 kts 277°
2026-05-05 04:53 32.18410 120.53512 36086 ft 425 kts 274°
2026-05-05 04:53 32.18946 120.46555 36080 ft 427 kts 274°
2026-05-05 04:54 32.19500 120.39578 36081 ft 427 kts 274°
2026-05-05 04:54 32.20059 120.32626 36092 ft 427 kts 274°
2026-05-05 04:55 32.20621 120.25665 36097 ft 428 kts 274°
2026-05-05 04:55 32.21190 120.18683 36092 ft 427 kts 274°
2026-05-05 04:56 32.21754 120.11733 36092 ft 428 kts 274°
2026-05-05 04:56 32.22317 120.04751 36075 ft 429 kts 275°
2026-05-05 04:57 32.22876 119.97771 36077 ft 429 kts 275°
2026-05-05 04:57 32.23434 119.90765 36085 ft 429 kts 274°
2026-05-05 04:58 32.24211 119.83792 36075 ft 430 kts 282°
2026-05-05 04:58 32.26429 119.77235 36074 ft 435 kts 297°
2026-05-05 04:59 32.30160 119.71604 36078 ft 442 kts 313°
2026-05-05 04:59 32.35114 119.67084 36078 ft 450 kts 320°
2026-05-05 05:00 32.40164 119.62824 36071 ft 448 kts 320°
2026-05-05 05:00 32.45246 119.58504 36077 ft 448 kts 320°
2026-05-05 05:01 32.50271 119.54196 36068 ft 446 kts 320°
2026-05-05 05:01 32.55277 119.49877 36067 ft 445 kts 320°
2026-05-05 05:02 32.60274 119.45557 36070 ft 447 kts 320°
2026-05-05 05:02 32.65322 119.41186 36069 ft 447 kts 320°
2026-05-05 05:03 32.70335 119.36838 36062 ft 446 kts 320°
2026-05-05 05:03 32.75338 119.32492 36070 ft 447 kts 320°
2026-05-05 05:04 32.80326 119.28153 36061 ft 446 kts 320°
2026-05-05 05:04 32.85369 119.23759 36046 ft 448 kts 320°
2026-05-05 05:05 32.90339 119.19424 36045 ft 446 kts 320°
2026-05-05 05:05 32.95363 119.15039 36050 ft 447 kts 321°
2026-05-05 05:06 33.00398 119.10708 36034 ft 447 kts 321°
2026-05-05 05:06 33.05429 119.06377 36040 ft 446 kts 321°
2026-05-05 05:07 33.10463 119.02034 36034 ft 446 kts 321°
2026-05-05 05:07 33.15472 118.97705 36043 ft 446 kts 321°
2026-05-05 05:08 33.20477 118.93372 36037 ft 444 kts 321°
2026-05-05 05:08 33.25476 118.89009 36040 ft 445 kts 321°
2026-05-05 05:09 33.30483 118.84634 36044 ft 446 kts 321°
2026-05-05 05:09 33.35493 118.80295 36039 ft 444 kts 321°
2026-05-05 05:10 33.40495 118.75960 36038 ft 446 kts 322°
2026-05-05 05:10 33.45502 118.71614 36041 ft 445 kts 322°
2026-05-05 05:11 33.50510 118.67271 36035 ft 444 kts 322°
2026-05-05 05:11 33.55526 118.62923 36031 ft 445 kts 322°
2026-05-05 05:12 33.60513 118.58594 36035 ft 443 kts 322°
2026-05-05 05:12 33.65507 118.54252 36026 ft 442 kts 322°
2026-05-05 05:13 33.70496 118.49906 36026 ft 444 kts 322°
2026-05-05 05:13 33.75480 118.45560 36032 ft 443 kts 322°
2026-05-05 05:14 33.80461 118.41209 36025 ft 442 kts 322°
2026-05-05 05:14 33.85441 118.36852 36016 ft 441 kts 322°
2026-05-05 05:15 33.90406 118.32502 36013 ft 442 kts 322°
2026-05-05 05:15 33.95389 118.28130 36021 ft 441 kts 322°
2026-05-05 05:16 34.00342 118.23801 36013 ft 440 kts 322°
2026-05-05 05:16 34.05301 118.19485 36020 ft 440 kts 323°
2026-05-05 05:17 34.10257 118.15167 36014 ft 440 kts 323°
2026-05-05 05:17 34.15217 118.10848 36019 ft 439 kts 323°
2026-05-05 05:18 34.20184 118.06517 36019 ft 439 kts 323°
2026-05-05 05:18 34.25118 118.02211 36012 ft 440 kts 324°
2026-05-05 05:19 34.30583 117.98869 36005 ft 442 kts 340°
2026-05-05 05:19 34.36473 117.96737 36010 ft 441 kts 341°
2026-05-05 05:20 34.42368 117.94642 36004 ft 442 kts 341°
2026-05-05 05:20 34.48238 117.92548 36002 ft 441 kts 342°
2026-05-05 05:21 34.54114 117.90447 36007 ft 442 kts 342°
2026-05-05 05:21 34.60024 117.88329 36000 ft 441 kts 342°
2026-05-05 05:22 34.65872 117.86230 36004 ft 441 kts 342°
2026-05-05 05:22 34.71762 117.84113 35993 ft 439 kts 342°
2026-05-05 05:23 34.77594 117.82012 36004 ft 439 kts 342°
2026-05-05 05:23 34.83472 117.79889 35997 ft 438 kts 342°
2026-05-05 05:24 34.89304 117.77750 36006 ft 439 kts 342°
2026-05-05 05:24 34.95157 117.75610 36027 ft 440 kts 342°
2026-05-05 05:25 35.00996 117.73472 36004 ft 436 kts 342°
2026-05-05 05:25 35.06788 117.71349 36003 ft 438 kts 342°
2026-05-05 05:26 35.12651 117.69199 36011 ft 437 kts 342°
2026-05-05 05:26 35.18460 117.67067 36014 ft 438 kts 342°
2026-05-05 05:27 35.24313 117.64916 36010 ft 437 kts 342°
2026-05-05 05:27 35.33038 117.61703 36020 ft 436 kts 342°
2026-05-05 05:28 35.38844 117.59560 36012 ft 436 kts 342°
2026-05-05 05:28 35.44637 117.57420 36012 ft 436 kts 342°
2026-05-05 05:29 35.50462 117.55264 36004 ft 437 kts 342°
2026-05-05 05:29 35.56239 117.53123 35992 ft 435 kts 342°
2026-05-05 05:30 35.62048 117.50967 35993 ft 436 kts 342°
2026-05-05 05:30 35.67851 117.48810 35995 ft 436 kts 342°
2026-05-05 05:31 35.73637 117.46656 35994 ft 434 kts 342°
2026-05-05 05:31 35.79416 117.44501 35989 ft 435 kts 342°
2026-05-05 05:32 35.85217 117.42335 35986 ft 435 kts 342°
2026-05-05 05:32 35.91004 117.40170 35982 ft 435 kts 342°
2026-05-05 05:33 35.96795 117.38000 35981 ft 434 kts 342°
2026-05-05 05:33 36.02568 117.35844 35980 ft 434 kts 342°
2026-05-05 05:34 36.08318 117.33723 35980 ft 434 kts 342°
2026-05-05 05:34 36.14128 117.31576 35979 ft 434 kts 342°
2026-05-05 05:35 36.19897 117.29440 35977 ft 433 kts 342°
2026-05-05 05:35 36.25704 117.27286 35973 ft 434 kts 342°
2026-05-05 05:36 36.31455 117.25150 35974 ft 433 kts 342°
2026-05-05 05:36 36.37236 117.22998 35983 ft 434 kts 342°
2026-05-05 05:37 36.42976 117.20687 35988 ft 432 kts 337°
2026-05-05 05:37 36.48507 117.17824 35990 ft 433 kts 336°
2026-05-05 05:38 36.54052 117.14936 35984 ft 431 kts 336°
2026-05-05 05:38 36.59575 117.12059 35964 ft 431 kts 336°
2026-05-05 05:39 36.65113 117.09170 35955 ft 431 kts 336°
2026-05-05 05:39 36.70628 117.06289 35927 ft 431 kts 336°
2026-05-05 05:40 36.76168 117.03390 35914 ft 431 kts 336°
2026-05-05 05:40 36.81695 117.00494 35893 ft 431 kts 336°
2026-05-05 05:41 36.87197 116.97607 35897 ft 430 kts 336°
2026-05-05 05:41 36.92719 116.94705 35881 ft 429 kts 336°
2026-05-05 05:42 36.98224 116.91808 35889 ft 432 kts 336°
2026-05-05 05:42 37.03742 116.88899 35886 ft 430 kts 336°
2026-05-05 05:43 37.09280 116.85974 35880 ft 430 kts 336°
2026-05-05 05:43 37.14770 116.83070 35883 ft 429 kts 336°
2026-05-05 05:44 37.20285 116.80150 35882 ft 428 kts 336°
2026-05-05 05:44 37.25922 116.77792 35868 ft 429 kts 342°
2026-05-05 05:45 37.31657 116.75639 35867 ft 429 kts 342°
2026-05-05 05:45 37.37312 116.73506 35864 ft 428 kts 341°
2026-05-05 05:46 37.43035 116.71342 35863 ft 428 kts 341°
2026-05-05 05:46 37.48736 116.69182 35862 ft 428 kts 341°
2026-05-05 05:47 37.54438 116.67017 35852 ft 427 kts 341°
2026-05-05 05:47 37.60101 116.64864 35859 ft 429 kts 341°
2026-05-05 05:48 37.65801 116.62692 35714 ft 428 kts 341°
2026-05-05 05:48 37.68669 116.61597 35277 ft 431 kts 341°
2026-05-05 05:48 37.71543 116.60501 34836 ft 429 kts 341°
2026-05-05 05:49 37.74366 116.59422 34408 ft 427 kts 341°
2026-05-05 05:49 37.77202 116.58338 33904 ft 427 kts 341°
2026-05-05 05:49 37.80043 116.57251 33356 ft 430 kts 341°
2026-05-05 05:49 37.82946 116.56139 32801 ft 434 kts 341°
2026-05-05 05:50 37.85843 116.55028 32257 ft 437 kts 341°
2026-05-05 05:50 37.88762 116.53908 31711 ft 440 kts 341°
2026-05-05 05:50 37.91725 116.52769 31161 ft 444 kts 341°
2026-05-05 05:50 37.94678 116.51618 30617 ft 444 kts 339°
2026-05-05 05:51 37.97510 116.50095 30085 ft 443 kts 331°
2026-05-05 05:51 38.00150 116.48059 29544 ft 446 kts 324°
2026-05-05 05:51 38.02645 116.45804 29010 ft 447 kts 323°
2026-05-05 05:51 38.05173 116.43490 28470 ft 444 kts 323°
2026-05-05 05:52 38.07668 116.41202 27938 ft 439 kts 323°
2026-05-05 05:52 38.10110 116.38960 27410 ft 434 kts 323°
2026-05-05 05:52 38.12566 116.36706 26886 ft 432 kts 323°
2026-05-05 05:52 38.14970 116.34496 26372 ft 428 kts 323°
2026-05-05 05:53 38.17401 116.32262 25855 ft 428 kts 322°
2026-05-05 05:53 38.19824 116.30073 25337 ft 427 kts 326°
2026-05-05 05:53 38.22436 116.28297 24822 ft 426 kts 335°
2026-05-05 05:53 38.25224 116.27105 24287 ft 425 kts 344°
2026-05-05 05:54 38.28131 116.26513 23749 ft 424 kts 353°
2026-05-05 05:54 38.31086 116.26542 23209 ft 424 kts
2026-05-05 05:54 38.33995 116.27187 22679 ft 425 kts 11°
2026-05-05 05:54 38.36814 116.28134 22162 ft 425 kts 12°
2026-05-05 05:55 38.39650 116.29114 21639 ft 422 kts 12°
2026-05-05 05:55 38.42493 116.30098 21113 ft 419 kts 12°
2026-05-05 05:55 38.45277 116.31061 20600 ft 416 kts 12°
2026-05-05 05:55 38.48068 116.32026 20082 ft 413 kts 12°
2026-05-05 05:56 38.50829 116.32980 19569 ft 410 kts 12°
2026-05-05 05:56 38.53565 116.33926 19059 ft 407 kts 12°
2026-05-05 05:56 38.56280 116.34864 18553 ft 404 kts 12°
2026-05-05 05:56 38.58995 116.35804 18043 ft 401 kts 13°
2026-05-05 05:57 38.61601 116.37022 17558 ft 401 kts 23°
2026-05-05 05:57 38.63971 116.38854 17242 ft 395 kts 34°
2026-05-05 05:57 38.65981 116.41180 17058 ft 391 kts 45°
2026-05-05 05:57 38.67639 116.43964 17050 ft 399 kts 54°
2026-05-05 05:58 38.69136 116.46937 17051 ft 399 kts 55°
2026-05-05 05:58 38.70627 116.49955 17049 ft 399 kts 56°
2026-05-05 05:58 38.72103 116.52965 17015 ft 400 kts 56°
2026-05-05 05:58 38.73572 116.55974 16946 ft 399 kts 56°
2026-05-05 05:59 38.75034 116.58978 16868 ft 399 kts 56°
2026-05-05 05:59 38.76496 116.61991 16793 ft 398 kts 56°
2026-05-05 05:59 38.77955 116.65003 16714 ft 398 kts 56°
2026-05-05 05:59 38.79420 116.68035 16631 ft 397 kts 57°
2026-05-05 06:00 38.80867 116.71033 16553 ft 396 kts 57°
2026-05-05 06:00 38.82321 116.74049 16475 ft 396 kts 57°
2026-05-05 06:00 38.83756 116.77030 16395 ft 396 kts 57°
2026-05-05 06:00 38.85201 116.80034 16320 ft 397 kts 57°
2026-05-05 06:01 38.86656 116.83063 16242 ft 397 kts 57°
2026-05-05 06:01 38.88103 116.86078 16164 ft 397 kts 57°
2026-05-05 06:01 38.89540 116.89075 16087 ft 397 kts 57°
2026-05-05 06:01 38.90974 116.92069 16008 ft 396 kts 57°
2026-05-05 06:02 38.92411 116.95073 15930 ft 396 kts 57°
2026-05-05 06:02 38.93857 116.98096 15882 ft 396 kts 57°
2026-05-05 06:02 38.95291 117.01101 15772 ft 396 kts 57°
2026-05-05 06:02 38.96729 117.04115 15675 ft 395 kts 57°
2026-05-05 06:03 38.98250 117.07025 15645 ft 393 kts 50°
2026-05-05 06:03 39.00161 117.09543 15604 ft 393 kts 38°
2026-05-05 06:03 39.02399 117.11525 15492 ft 390 kts 27°
2026-05-05 06:03 39.04881 117.12905 15419 ft 386 kts 15°
2026-05-05 06:04 39.07490 117.13644 15273 ft 384 kts
2026-05-05 06:04 39.10146 117.13734 15132 ft 380 kts 353°
2026-05-05 06:04 39.12742 117.13187 14982 ft 376 kts 343°
2026-05-05 06:04 39.15261 117.12272 14839 ft 375 kts 341°
2026-05-05 06:05 39.17772 117.11287 14669 ft 374 kts 340°
2026-05-05 06:05 39.20228 117.10283 14509 ft 373 kts 340°
2026-05-05 06:05 39.22703 117.09251 14372 ft 372 kts 339°
2026-05-05 06:05 39.25177 117.08194 14276 ft 372 kts 339°
2026-05-05 06:06 39.27638 117.07126 14138 ft 372 kts 339°
2026-05-05 06:06 39.30093 117.06048 13947 ft 370 kts 339°
2026-05-05 06:06 39.32524 117.04974 13839 ft 370 kts 338°
2026-05-05 06:06 39.34964 117.03890 13689 ft 370 kts 339°
2026-05-05 06:07 39.37403 117.02805 13547 ft 368 kts 338°
2026-05-05 06:07 39.39822 117.01725 13374 ft 369 kts 339°
2026-05-05 06:07 39.42260 117.00635 13000 ft 369 kts 338°
2026-05-05 06:07 39.44681 116.99551 12612 ft 366 kts 338°
2026-05-05 06:08 39.47072 116.98480 12250 ft 363 kts 338°
2026-05-05 06:08 39.49461 116.97407 11921 ft 363 kts 338°
2026-05-05 06:08 39.51819 116.96349 11594 ft 362 kts 338°
2026-05-05 06:08 39.54213 116.95273 11257 ft 362 kts 338°
2026-05-05 06:09 39.56570 116.94213 11020 ft 359 kts 338°
2026-05-05 06:09 39.58946 116.93143 10805 ft 362 kts 338°
2026-05-05 06:09 39.61370 116.92163 10509 ft 363 kts 345°
2026-05-05 06:09 39.63821 116.91689 10311 ft 353 kts 349°
2026-05-05 06:10 39.66227 116.91328 10223 ft 339 kts 350°
2026-05-05 06:10 39.68528 116.90987 10122 ft 326 kts 349°
2026-05-05 06:10 39.70754 116.90655 10005 ft 315 kts 349°
2026-05-05 06:10 39.72898 116.90331 9889 ft 304 kts 349°
2026-05-05 06:11 39.74956 116.90020 9774 ft 295 kts 348°
2026-05-05 06:11 39.76984 116.89712 9656 ft 292 kts 348°
2026-05-05 06:11 39.79027 116.89400 9543 ft 291 kts 348°
2026-05-05 06:11 39.81028 116.89095 9430 ft 293 kts 348°
2026-05-05 06:12 39.83052 116.88788 9317 ft 291 kts 348°
2026-05-05 06:12 39.85056 116.88483 9198 ft 291 kts 348°
2026-05-05 06:12 39.87065 116.88178 9088 ft 290 kts 348°
2026-05-05 06:12 39.89069 116.87874 8974 ft 290 kts 348°
2026-05-05 06:13 39.91074 116.87568 8854 ft 290 kts 348°
2026-05-05 06:13 39.93091 116.87261 8726 ft 290 kts 348°
2026-05-05 06:13 39.95074 116.86938 8532 ft 287 kts 345°
2026-05-05 06:13 39.96978 116.86269 8510 ft 284 kts 334°
2026-05-05 06:14 39.98751 116.85167 8512 ft 278 kts 323°
2026-05-05 06:14 40.00304 116.83711 8521 ft 274 kts 314°
2026-05-05 06:14 40.01632 116.81932 8529 ft 269 kts 304°
2026-05-05 06:14 40.02774 116.80043 8572 ft 269 kts 303°
2026-05-05 06:15 40.03945 116.78104 8614 ft 269 kts 303°
2026-05-05 06:15 40.05115 116.76241 8610 ft 270 kts 309°
2026-05-05 06:15 40.06651 116.74737 8608 ft 278 kts 326°
2026-05-05 06:15 40.08429 116.73763 8607 ft 283 kts 337°
2026-05-05 06:16 40.10371 116.73107 8607 ft 285 kts 343°
2026-05-05 06:16 40.12330 116.72644 8601 ft 286 kts 346°
2026-05-05 06:16 40.14308 116.72266 8570 ft 287 kts 347°
2026-05-05 06:16 40.16288 116.71928 8530 ft 287 kts 348°
2026-05-05 06:17 40.18266 116.71609 8559 ft 288 kts 348°
2026-05-05 06:17 40.20232 116.71300 8554 ft 281 kts 348°
2026-05-05 06:17 40.22149 116.71004 8485 ft 268 kts 348°
2026-05-05 06:17 40.23967 116.70724 8213 ft 264 kts 348°
2026-05-05 06:18 40.25800 116.70438 7940 ft 264 kts 348°
2026-05-05 06:18 40.27631 116.70154 7636 ft 263 kts 348°
2026-05-05 06:18 40.29421 116.69874 7331 ft 263 kts 348°
2026-05-05 06:18 40.31247 116.69589 7037 ft 263 kts 348°
2026-05-05 06:19 40.33073 116.69304 6756 ft 262 kts 349°
2026-05-05 06:19 40.34790 116.68697 6460 ft 253 kts 324°
2026-05-05 06:19 40.36019 116.67220 6288 ft 234 kts 297°
2026-05-05 06:19 40.36591 116.65274 6091 ft 225 kts 273°
2026-05-05 06:20 40.36655 116.63232 5811 ft 222 kts 264°
2026-05-05 06:20 40.36537 116.61229 5540 ft 221 kts 260°
2026-05-05 06:20 40.36131 116.59322 5258 ft 215 kts 236°
2026-05-05 06:20 40.35144 116.57928 4989 ft 211 kts 213°
2026-05-05 06:21 40.33758 116.57387 4723 ft 210 kts 181°
2026-05-05 06:21 40.32337 116.57564 4652 ft 200 kts 177°
2026-05-05 06:21 40.30966 116.57802 4426 ft 197 kts 176°
2026-05-05 06:21 40.29617 116.58031 4165 ft 197 kts 176°
2026-05-05 06:22 40.28257 116.58253 3893 ft 196 kts 176°
2026-05-05 06:22 40.26889 116.58472 3632 ft 196 kts 177°
2026-05-05 06:22 40.25534 116.58685 3376 ft 196 kts 176°
2026-05-05 06:22 40.24191 116.58897 3119 ft 191 kts 176°
2026-05-05 06:23 40.22911 116.59099 2886 ft 179 kts 176°
2026-05-05 06:23 40.21728 116.59285 2652 ft 165 kts 176°
2026-05-05 06:23 40.20635 116.59456 2443 ft 154 kts 176°
2026-05-05 06:23 40.19623 116.59616 2250 ft 139 kts 177°
2026-05-05 06:24 40.18664 116.59763 2066 ft 136 kts 176°
2026-05-05 06:24 40.17735 116.59910 1875 ft 134 kts 176°
2026-05-05 06:24 40.16804 116.60055 1683 ft 133 kts 175°
2026-05-05 06:24 40.16136 116.60160 1551 ft 134 kts 175°
2026-05-05 06:25 40.15207 116.60307 1356 ft 134 kts 174°
2026-05-05 06:25 40.14282 116.60452 1170 ft 134 kts 175°
2026-05-05 06:25 40.13350 116.60589 992 ft 134 kts 175°
2026-05-05 06:25 40.12419 116.60722 781 ft 136 kts 175°
2026-05-05 06:26 40.11466 116.60903 588 ft 138 kts 176°
2026-05-05 06:26 40.10526 116.61021 419 ft 137 kts 173°
2026-05-05 06:26 40.09570 116.61188 231 ft 138 kts 174°
2026-05-05 06:26 40.08627 116.61314 129 ft 125 kts 175°
2026-05-05 06:27 40.07943 116.61430 129 ft 72 kts 172°
2026-05-05 06:27 40.07419 116.61513 129 ft 39 kts 179°
2026-05-05 06:27 40.07180 116.61430 129 ft 17 kts 203°
2026-05-05 06:28 40.07093 116.61382 128 ft 12 kts 203°
2026-05-05 06:28 40.07013 116.61353 128 ft 11 kts 187°
2026-05-05 06:28 40.06962 116.61289 128 ft 10 kts 257°
2026-05-05 06:28 40.06952 116.61192 128 ft 11 kts 263°
2026-05-05 06:29 40.06942 116.61080 128 ft 13 kts 264°
2026-05-05 06:29 40.06970 116.60985 128 ft 12 kts 333°
2026-05-05 06:29 40.07053 116.60960 128 ft 12 kts 354°
2026-05-05 06:29 40.07137 116.60945 128 ft 12 kts 352°
2026-05-05 06:30 40.07197 116.60927 128 ft 6 kts 313°
2026-05-05 06:30 40.07205 116.60885 128 ft 4 kts 255°
2026-05-05 06:30 40.07199 116.60859 128 ft 1 kts 262°
2026-05-05 06:30 40.07198 116.60852 128 ft 0 kts 262°
2026-05-05 06:31 40.07197 116.60841 129 ft 0 kts 263°